• Processing (Info)

  • MPEC 2022-V97 : 2022 VV

    The following Minor Planet Electronic Circular may be linked-to from your own Web pages, but must not otherwise be redistributed electronically.

    A form allowing access to any MPEC is at the bottom of this page.


    Read MPEC 2022-V96 Read MPEC 2022-V98


    M.P.E.C. 2022-V97                              Issued 2022 November 5, 09:06 UT
    
         The Minor Planet Electronic Circulars contain information on unusual
             minor planets, routine data on comets and natural satellites,
             and occasional editorial announcements.  They are published
        on behalf of Division F of the International Astronomical Union by the
              Minor Planet Center, Smithsonian Astrophysical Observatory,
                              Cambridge, MA 02138, U.S.A.
    			  
                 Prepared using the Tamkin Foundation Computer Network
    
                                  MPC@CFA.HARVARD.EDU
                URL https://www.minorplanetcenter.net/    ISSN 1523-6714
    
                                     2022 VV                                 
    
    
    Observations:
         K22V00V* C2022 11 01.28829502 37 51.367+15 52 10.19         21.52wUEV097F52
         K22V00V  C2022 11 01.30032502 37 47.565+15 52 33.15         21.36wUEV097F52
         K22V00V  C2022 11 01.31230402 37 43.762+15 52 56.03         21.44wUEV097F52
         K22V00V  C2022 11 01.32430302 37 39.980+15 53 19.20         21.03wUEV097F52
         K22V00V  C2022 11 01.38708902 37 18.127+15 55 09.15         21.0 GVEV097H01
         K22V00V  C2022 11 01.39166102 37 16.686+15 55 17.52         21.0 GVEV097H01
         K22V00V  C2022 11 01.39325302 37 18.000+15 55 30.41         21.20GVEV097F51
         K22V00V  C2022 11 01.39389202 37 17.810+15 55 31.54         21.18GVEV097F51
         K22V00V  C2022 11 01.40909102 37 11.179+15 55 49.62         21.6 GVEV097H01
         K22V00V  C2022 11 01.41226402 37 10.176+15 55 55.44         21.1 GVEV097H01
         K22V00V KC2022 11 02.19972602 33 12.05 +16 20 16.7          20.9 VuEV097H21
         K22V00V KC2022 11 02.20531802 33 10.25 +16 20 27.1          21.1 VuEV097H21
         K22V00V KC2022 11 02.20811402 33 09.38 +16 20 32.1          20.9 VuEV097H21
         K22V00V KC2022 11 05.26283502 17 45.210+17 50 31.80         21.15GVEV097I52
         K22V00V KC2022 11 05.26835002 17 43.440+17 50 42.20               VEV097I52
         K22V00V KC2022 11 05.27639202 17 40.950+17 50 55.00         21.25GVEV097I52
    
    Observer details:
    F51 Pan-STARRS 1, Haleakala.  Observers J. Bulger, K. Chambers, T. Lowe, A.
        Schultz, I. Smith.  Measurers S. Chastel, J. Fairlamb, M. Huber, Y.
        Ramanjooloo, R. Wainscoat, R. Weryk.  1.8-m Ritchey-Chretien + CCD.
    F52 Pan-STARRS 2, Haleakala.  Observers J. Bulger, T. Lowe, A. Schultz, I.
        Smith.  Measurers K. Chambers, S. Chastel, T. de Boer, J. Fairlamb, H.
        Gao, M. Huber, C.-C. Lin, E. Magnier, Y. Ramanjooloo, R. Wainscoat, R.
        Weryk.  1.8-m Ritchey-Chretien + CCD.
    H01 Magdalena Ridge Observatory, Socorro.  Observers W. H. Ryan, E. V. Ryan.
        Measurer W. H. Ryan.  2.4-m f/8.9 Ritchey-Chretien + CCD.
    H21 Astronomical Research Observatory, Westfield.  Observer R. Holmes.
        Measurers T. Linder, R. Holmes, L. Horn.  0.76-m f/3.0 astrograph + CCD.
    I52 Steward Observatory, Mt. Lemmon Station.  Observer G. J. Leonard.
        Measurers E. J. Christensen, D. Fay, J. B. Fazekas, D. C. Fuls, A. R.
        Gibbs, A. D. Grauer, H. Groeller, J. K. Hogan, R. A. Kowalski, S. M.
        Larson, G. J. Leonard, D. Rankin, R. L. Seaman, A. Serrano, F. C. Shelly,
        K. W. Wierzchos.  1.0-m prime focus + CCD.
    
    Orbital elements:
    2022 VV                                                  Earth MOID = 0.2042 AU
    Epoch 2022 Aug. 9.0 TT = JDT 2459800.5                  MPC                     
    M  80.64148              (2000.0)            P               Q                  
    n   0.97213495     Peri.  191.74509     -0.63870666     +0.75209208             
    a   1.0092181      Node    38.88311     -0.68333644     -0.45733963             
    e   0.2216026      Incl.   15.00436     -0.35370201     -0.47455027             
    P   1.01           H   23.76          G   0.15           U   7                  
    Residuals in seconds of arc
    221101 F52  0.3+  0.2+    221101 F51  0.1-  0.1+    221102 H21  0.1+  0.1-
    221101 F52  0.1+  0.0     221101 F51  0.1+  0.0     221105 I52  0.3+  0.5-
    221101 F52  0.2-  0.1-    221101 H01  0.0   0.0     221105 I52  0.4-  0.6+
    221101 F52  0.0   0.0     221101 H01  0.0   0.0     221105 I52  0.0   0.2-
    221101 H01  0.0   0.0     221102 H21  0.2+  0.0
    221101 H01  0.1+  0.0     221102 H21  0.2-  0.1+
    
    Ephemeris:
    2022 VV                  a,e,i = 1.01, 0.22, 15                  q = 0.7856
    Date    TT    R. A. (2000) Decl.     Delta      r    Elong.  Phase     V
    2022 10 06    04 18 05.4 +02 27 42   0.2822  1.1911   127.0    42.1    23.0
    ...
    2022 10 21    03 31 34.3 +09 38 21   0.2404  1.2145   152.8    22.0    22.1
    ...
    2022 10 29    02 54 25.5 +14 06 14   0.2328  1.2232   169.6     8.4    21.6
    ...
    2022 11 04    02 24 05.0 +17 14 27   0.2363  1.2279   176.6     2.7    21.4
    2022 11 05    02 19 03.9 +17 43 15   0.2377  1.2285   174.7     4.3    21.5
    2022 11 06    02 14 05.7 +18 11 09   0.2393  1.2291   172.7     5.9    21.6
    ...
    2022 11 12    01 46 00.9 +20 38 07   0.2533  1.2317   160.6    15.5    22.1
    ...
    2022 11 20    01 15 38.9 +23 01 32   0.2821  1.2328   146.2    26.4    22.7
    ...
    2022 12 05    00 44 17.6 +25 52 56   0.3560  1.2275   125.6    40.7    23.6
    
    A. U. Tomatic                (C) Copyright 2022 MPC           M.P.E.C. 2022-V97
    


    Read MPEC 2022-V96 Read MPEC 2022-V98


    MPEC number:

    Enter an MPEC number in one of the following forms:

    • 1997-B01 (the full form)
    • J97B01 (the packed version of the full form)
    • B01 (the abbreviated form)